Simultaneous Nadir Overpasses (SNOs) Predictions

Prediction of SNOs between AQUA and METOP-C Satellite Orbit:

Table of predicted SNOs for the next 14.0 days since TLE Epoch: 6/18/2021
Index Date (AQUA) Time (AQUA) Lat,Lon (AQUA) SZA (AQUA ) Date (METOP-C) Time (METOP-C) Lat,Lon (METOP-C) SZA (METOP-C ) Distance(km) Time Diff (sec)
1 06/18/2021 15:49:10 -73.74, 117.09 129.67 06/18/2021 15:49:10 -73.77, 117.07 129.64 3.53 0
2 06/18/2021 16:38:39 73.82, -75.46 50.43 06/18/2021 16:39:48 73.81, -75.49 50.41 1.78 69
3 06/21/2021 10:33:58 73.68, 16.01 50.26 06/21/2021 10:32:50 73.70, 16.00 50.29 2.29 68
4 06/21/2021 11:23:25 -73.75,-176.49 129.67 06/21/2021 11:23:32 -73.74,-176.58 129.68 2.97 7
5 06/21/2021 12:12:55 73.89, -9.16 50.48 06/21/2021 12:14:07 73.93, -8.80 50.50 12.09 72
6 06/24/2021 06:08:13 73.70, 82.41 50.32 06/24/2021 06:07:11 73.72, 82.45 50.35 2.67 62
7 06/24/2021 06:57:40 -73.77,-110.09 129.62 06/24/2021 06:57:53 -73.76,-110.13 129.62 1.35 13
8 06/24/2021 07:47:15 74.16, 56.65 50.82 06/24/2021 07:48:24 74.15, 58.14 50.74 45.21 69
9 06/27/2021 01:42:27 73.73, 148.80 50.44 06/27/2021 01:41:31 73.74, 148.90 50.46 3.49 56
10 06/27/2021 02:31:54 -73.79, -43.70 129.50 06/27/2021 02:32:13 -73.78, -43.68 129.51 0.93 19
11 06/27/2021 03:21:33 74.39, 122.55 51.16 06/27/2021 03:22:39 74.41, 125.21 51.08 79.64 66
12 06/29/2021 21:16:41 73.70,-144.71 50.56 06/29/2021 21:15:53 73.71,-144.77 50.57 1.90 48
13 06/29/2021 22:06:09 -73.82, 22.68 129.32 06/29/2021 22:06:34 -73.80, 22.76 129.35 3.52 25



Historial Predications of SNOs between AQUA and METOP-C
